| time (UTC) | temp F | wind direction | speed knots | gust knots | rain 1hr in | rain 24hr in | rain mn in | humidity % | barometer mb |
| 20260504150903 | 60 | 307 | 3.5 | 10.4 | 0.00 | 0.00 | 0.00 | 37 | 996.1 |
| 20260504141116 | 61 | 287 | 4.3 | 10.4 | 0.00 | 0.00 | 0.00 | 41 | 995.5 |
| 20260504081804 | 56 | 270 | 1.7 | 4.3 | 0.00 | 0.00 | 0.00 | 42 | 996.4 |
| 20260504080904 | 56 | 263 | 1.7 | 4.3 | 0.00 | 0.00 | 0.00 | 42 | 996.5 |
| 20260504050005 | 47 | 0 | 0.0 | 0.0 | 0.00 | 0.00 | 0.00 | 64 | 999.8 |
| 20260504045403 | 47 | 0 | 0.0 | 0.0 | 0.00 | 0.00 | 0.00 | 67 | 999.9 |
| 20260504044503 | 47 | 0 | 0.0 | 0.0 | 0.00 | 0.00 | 0.00 | 65 | 1000.0 |
| 20260504043603 | 46 | 0 | 0.0 | 0.0 | 0.00 | 0.00 | 0.00 | 67 | 1000.2 |
| 20260504042704 | 46 | 0 | 0.0 | 0.0 | 0.00 | 0.00 | 0.00 | 70 | 1000.3 |
| 20260504041803 | 46 | 0 | 0.0 | 0.0 | 0.00 | 0.00 | 0.00 | 70 | 1000.3 |
| 20260504040903 | 47 | 0 | 0.0 | 0.0 | 0.00 | 0.00 | 0.00 | 69 | 1000.5 |
| 20260504040004 | 47 | 0 | 0.0 | 0.0 | 0.00 | 0.00 | 0.00 | 65 | 1000.7 |
| 20260504035403 | 48 | 0 | 0.0 | 0.0 | 0.00 | 0.00 | 0.00 | 63 | 1000.8 |
| 20260504034503 | 48 | 0 | 0.0 | 0.0 | 0.00 | 0.00 | 0.00 | 62 | 1000.9 |
| 20260504033603 | 48 | 0 | 0.0 | 0.0 | 0.00 | 0.00 | 0.00 | 62 | 1001.1 |
| 20260504032703 | 49 | 0 | 0.0 | 0.0 | 0.00 | 0.00 | 0.00 | 60 | 1001.3 |
| 20260504031803 | 48 | 0 | 0.0 | 0.0 | 0.00 | 0.00 | 0.00 | 59 | 1001.3 |
| 20260504030903 | 49 | 0 | 0.0 | 0.0 | 0.00 | 0.00 | 0.00 | 64 | 1001.4 |
| 20260504030215 | 50 | 0 | 0.0 | 0.0 | 0.00 | 0.00 | 0.00 | 62 | 1001.5 |
| 20260504025403 | 50 | 0 | 0.0 | 0.0 | 0.00 | 0.00 | 0.00 | 57 | 1001.5 |
| 20260504024504 | 51 | 279 | 0.0 | 0.0 | 0.00 | 0.00 | 0.00 | 53 | 1001.5 |
| 20260504023603 | 52 | 279 | 0.0 | 0.9 | 0.00 | 0.00 | 0.00 | 53 | 1001.6 |
| 20260504022703 | 53 | 0 | 0.0 | 0.0 | 0.00 | 0.00 | 0.00 | 51 | 1001.6 |
| 20260504022016 | 54 | 279 | 0.0 | 0.0 | 0.00 | 0.00 | 0.00 | 49 | 1001.6 |
| 20260504020903 | 55 | 0 | 0.0 | 0.0 | 0.00 | 0.00 | 0.00 | 46 | 1001.6 |
| 20260504020004 | 57 | 0 | 0.0 | 0.0 | 0.00 | 0.00 | 0.00 | 38 | 1001.7 |
| 20260504015403 | 58 | 0 | 0.0 | 0.0 | 0.00 | 0.00 | 0.00 | 38 | 1001.7 |
| 20260504014503 | 59 | 279 | 0.0 | 0.0 | 0.00 | 0.00 | 0.00 | 33 | 1001.8 |
| 20260504013603 | 60 | 279 | 0.0 | 0.9 | 0.00 | 0.00 | 0.00 | 30 | 1001.8 |
| 20260504012703 | 61 | 0 | 0.0 | 0.0 | 0.00 | 0.00 | 0.00 | 30 | 1001.8 |
| 20260504012017 | 62 | 0 | 0.0 | 0.0 | 0.00 | 0.00 | 0.00 | 28 | 1001.8 |
| 20260504010903 | 64 | 0 | 0.0 | 0.0 | 0.00 | 0.00 | 0.00 | 26 | 1001.8 |
| 20260504010003 | 65 | 0 | 0.0 | 0.0 | 0.00 | 0.00 | 0.00 | 25 | 1001.9 |
| 20260504005403 | 66 | 286 | 0.0 | 0.0 | 0.00 | 0.00 | 0.00 | 24 | 1001.8 |
| 20260504004715 | 66 | 292 | 1.7 | 2.6 | 0.00 | 0.00 | 0.00 | 24 | 1001.8 |
| 20260504003603 | 67 | 287 | 1.7 | 3.5 | 0.00 | 0.00 | 0.00 | 22 | 1001.9 |
| 20260504002703 | 67 | 295 | 1.7 | 4.3 | 0.00 | 0.00 | 0.00 | 23 | 1001.9 |
| 20260504001803 | 67 | 294 | 1.7 | 5.2 | 0.00 | 0.00 | 0.00 | 24 | 1002.2 |
| 20260504001115 | 68 | 293 | 1.7 | 4.3 | 0.00 | 0.00 | 0.00 | 23 | 1002.1 |
| 20260504000003 | 68 | 285 | 2.6 | 4.3 | 0.00 | 0.00 | 0.00 | 21 | 1002.0 |
| 20260503235403 | 69 | 286 | 2.6 | 4.3 | 0.00 | 0.00 | 0.00 | 22 | 1002.0 |
| 20260503234503 | 69 | 277 | 2.6 | 6.1 | 0.00 | 0.00 | 0.00 | 22 | 1002.1 |
| 20260503233603 | 69 | 325 | 2.6 | 3.5 | 0.00 | 0.00 | 0.00 | 23 | 1002.2 |
| 20260503232703 | 69 | 325 | 2.6 | 5.2 | 0.00 | 0.00 | 0.00 | 21 | 1002.3 |
| 20260503232013 | 70 | 306 | 1.7 | 4.3 | 0.00 | 0.00 | 0.00 | 23 | 1002.3 |
| 20260503230903 | 70 | 324 | 2.6 | 4.3 | 0.00 | 0.00 | 0.00 | 20 | 1002.4 |
| 20260503230003 | 70 | 312 | 2.6 | 6.1 | 0.00 | 0.00 | 0.00 | 22 | 1002.4 |
| 20260503225403 | 70 | 334 | 2.6 | 6.1 | 0.00 | 0.00 | 0.00 | 21 | 1002.5 |
| 20260503224503 | 70 | 345 | 3.5 | 6.1 | 0.00 | 0.00 | 0.00 | 20 | 1002.5 |
| 20260503223603 | 70 | 356 | 2.6 | 11.3 | 0.00 | 0.00 | 0.00 | 20 | 1002.7 |
| 20260503222703 | 70 | 302 | 3.5 | 7.8 | 0.00 | 0.00 | 0.00 | 21 | 1002.8 |
| 20260503221804 | 70 | 303 | 2.6 | 6.1 | 0.00 | 0.00 | 0.00 | 22 | 1002.7 |
| 20260503220903 | 70 | 316 | 3.5 | 6.1 | 0.00 | 0.00 | 0.00 | 23 | 1002.7 |
| 20260503220004 | 70 | 325 | 4.3 | 9.6 | 0.00 | 0.00 | 0.00 | 22 | 1002.8 |
| 20260503215403 | 70 | 2 | 4.3 | 9.6 | 0.00 | 0.00 | 0.00 | 24 | 1002.6 |
| 20260503214503 | 70 | 321 | 3.5 | 7.8 | 0.00 | 0.00 | 0.00 | 23 | 1002.5 |
| 20260503213603 | 70 | 342 | 4.3 | 7.8 | 0.00 | 0.00 | 0.00 | 25 | 1002.7 |
| 20260503212703 | 71 | 327 | 2.6 | 8.7 | 0.00 | 0.00 | 0.00 | 25 | 1002.8 |
| 20260503212014 | 70 | 341 | 3.5 | 9.6 | 0.00 | 0.00 | 0.00 | 25 | 1002.7 |
| 20260503210903 | 70 | 324 | 4.3 | 7.8 | 0.00 | 0.00 | 0.00 | 24 | 1002.9 |
| 20260503210004 | 70 | 321 | 3.5 | 8.7 | 0.00 | 0.00 | 0.00 | 22 | 1003.0 |
| 20260503205403 | 70 | 331 | 3.5 | 11.3 | 0.00 | 0.00 | 0.00 | 23 | 1003.1 |
| 20260503204503 | 70 | 346 | 4.3 | 8.7 | 0.00 | 0.00 | 0.00 | 26 | 1003.2 |
| 20260503203603 | 70 | 351 | 4.3 | 10.4 | 0.00 | 0.00 | 0.00 | 22 | 1003.3 |
| 20260503202703 | 70 | 324 | 2.6 | 8.7 | 0.00 | 0.00 | 0.00 | 23 | 1003.4 |
| 20260503201803 | 70 | 298 | 3.5 | 6.1 | 0.00 | 0.00 | 0.00 | 23 | 1003.4 |
| 20260503200903 | 70 | 318 | 4.3 | 8.7 | 0.00 | 0.00 | 0.00 | 24 | 1003.5 |
| 20260503200003 | 69 | 357 | 4.3 | 7.8 | 0.00 | 0.00 | 0.00 | 25 | 1003.5 |
| 20260503195616 | 69 | 359 | 4.3 | 8.7 | 0.00 | 0.00 | 0.00 | 23 | 1003.6 |
| 20260503194504 | 68 | 357 | 6.1 | 10.4 | 0.00 | 0.00 | 0.00 | 24 | 1003.8 |
| 20260503193603 | 69 | 331 | 3.5 | 10.4 | 0.00 | 0.00 | 0.00 | 25 | 1003.8 |
| 20260503192703 | 69 | 332 | 4.3 | 7.8 | 0.00 | 0.00 | 0.00 | 27 | 1003.8 |
| 20260503191803 | 69 | 351 | 3.5 | 8.7 | 0.00 | 0.00 | 0.00 | 28 | 1003.7 |
| 20260503190903 | 69 | 6 | 3.5 | 10.4 | 0.00 | 0.00 | 0.00 | 30 | 1003.7 |
| 20260503190215 | 69 | 348 | 4.3 | 7.8 | 0.00 | 0.00 | 0.00 | 28 | 1003.9 |
| 20260503185616 | 68 | 354 | 5.2 | 13.9 | 0.00 | 0.00 | 0.00 | 27 | 1004.0 |
| 20260503184503 | 69 | 324 | 3.5 | 6.1 | 0.00 | 0.00 | 0.00 | 28 | 1003.8 |
| 20260503183603 | 69 | 319 | 2.6 | 8.7 | 0.00 | 0.00 | 0.00 | 28 | 1003.9 |
| 20260503182704 | 68 | 351 | 4.3 | 11.3 | 0.00 | 0.00 | 0.00 | 29 | 1004.0 |
| 20260503181803 | 68 | 3 | 5.2 | 11.3 | 0.00 | 0.00 | 0.00 | 27 | 1004.1 |
| 20260503180904 | 68 | 345 | 5.2 | 14.8 | 0.00 | 0.00 | 0.00 | 32 | 1004.2 |
| 20260503180004 | 68 | 311 | 4.3 | 10.4 | 0.00 | 0.00 | 0.00 | 28 | 1004.2 |
| 20260503175403 | 68 | 332 | 3.5 | 13.0 | 0.00 | 0.00 | 0.00 | 33 | 1004.4 |
| 20260503174503 | 67 | 342 | 4.3 | 10.4 | 0.00 | 0.00 | 0.00 | 35 | 1004.2 |
| 20260503173817 | 67 | 347 | 4.3 | 10.4 | 0.00 | 0.00 | 0.00 | 33 | 1004.2 |
| 20260503172703 | 66 | 338 | 4.3 | 10.4 | 0.00 | 0.00 | 0.00 | 32 | 1004.4 |
| 20260503172017 | 67 | 353 | 4.3 | 9.6 | 0.00 | 0.00 | 0.00 | 33 | 1004.5 |
| 20260503170904 | 67 | 299 | 4.3 | 9.6 | 0.00 | 0.00 | 0.00 | 35 | 1004.6 |